Regional Weather Roundup
Issued by NWS

Home | Current Version | Previous Version | Text Only | Print | Product List | Glossary Off
Versions: 1 2 3 4 5 6 7 8 9 10 11 12 13 14 15 16 17 18 19 20 21 22 23 24 25 26 27 28 29 30 31 32 33 34 35 36 37 38 39 40 41 42 43 44 45 46 47 48 49 50

000
ASUS43 KDTX 050910
RWRMI
MICHIGAN HOURLY REGIONAL WEATHER ROUNDUP
NATIONAL WEATHER SERVICE DETROIT/PONTIAC MI
500 AM EDT SAT SEP 05 2015

NOTE: "FAIR" INDICATES FEW OR NO CLOUDS BELOW 12,000 FEET WITH NO
SIGNIFICANT WEATHER AND/OR OBSTRUCTION TO VISIBILITY.

MIZ047>049-052>055-059>063-066>070-074>076-081>083-051000-
SOUTHEAST LOWER MICHIGAN

CITY           SKY/WX    TMP DP  RH WIND       PRES   REMARKS
ADRIAN         PTCLDY    68  66  93 NW5       30.10R
ALMA           FOG       64  64 100 NE5       30.09R VSB 1/2
ANN ARBOR      FOG       66  65  96 CALM      30.09R VSB 1/2
BAD AXE        CLOUDY    67  65  92 CALM      30.11R
DETROIT CITY   CLOUDY    69  68  96 CALM      30.10R FOG
DETROIT        PTCLDY    70  67  90 CALM      30.11R FOG
FLINT          FOG       71  68  90 CALM      30.09R VSB 3/4
GROSSE ILE     CLOUDY    70  66  88 CALM      30.09R
HILLSDALE      CLEAR     69  67  92 CALM      30.11R
HOWELL         CLOUDY    66  66  99 CALM      30.10R FOG

CITY           SKY/WX    TMP DP  RH WIND       PRES   REMARKS
JACKSON        CLEAR     69  67  93 W3        30.10R
LAMBERTVILLE   MOCLDY    68  65  90 CALM      30.10S
LANSING        CLOUDY    69  67  93 SW8       30.09R FOG
LAPEER         NOT AVBL
MASON          CLOUDY    66  64  91 CALM      30.10R FOG
MONROE         CLOUDY    68  66  93 CALM      30.09R
MT. CLEMENS    CLOUDY    70  70 100 W2        30.09R
PONTIAC        CLOUDY    69  68  96 CALM        N/A  FOG
PORT HOPE        N/A     69  63  81 S3        30.08R
PORT HURON     CLOUDY    68  68 100 CALM      30.10R FOG
TRI CITIES     FOG       65  63  93 CALM      30.09R VSB 1/4
YPSILANTI      MOCLDY    70  66  87 W3        30.10R FOG
$$
MIZ043>046-050>051-056>058-064>065-071>073-077>080-051000-
SOUTHWEST LOWER MICHIGAN

CITY           SKY/WX    TMP DP  RH WIND       PRES   REMARKS
BATTLE CREEK   PTCLDY    69  67  93 SW3       30.09S FOG
BENTON HARBOR  PTCLDY    65  64  97 E5        30.07R FOG
BIG RAPIDS     FOG       67  66  99 CALM      30.09R VSB 1/4
COLDWATER        N/A     66  65  98 CALM      30.10R
HOLLAND        FOG       65  64  97 CALM      30.08S VSB 3/4
GRAND RAPIDS   FOG       64  63  96 CALM      30.08R VSB 1/4
KALAMAZOO      PTCLDY    70  67  90 S8        30.09R
MARSHALL       PTCLDY    68  66  94 CALM      30.09S
MUSKEGON       CLOUDY    66  64  93 CALM      30.08R FOG
$$
MIZ016>042-051000-
NORTHERN LOWER MICHIGAN

CITY           SKY/WX    TMP DP  RH WIND       PRES   REMARKS
ALPENA         CLOUDY    69  64  84 CALM      30.09R
BEAVER ISLAND  PTCLDY    65  64  97 CALM      30.07S FOG
BELLAIRE       FOG       65  64  97 CALM      30.07R VSB 1
CADILLAC       FOG       65  65  99 CALM      30.09R VSB 1/4
CHARLEVOIX     CLEAR     66  66 100 CALM      30.09S FOG
FRANKFORT      CLOUDY    68  68 100 CALM      30.06S FOG
GAYLORD        PTCLDY    67  67 100 CALM      30.09S FOG
GRAYLING       FOG       66  66  99 CALM      30.10R VSB 3/4
HARBOR SPRINGS CLOUDY    67  65  95 CALM      30.07S
HOUGHTON LAKE  CLOUDY    68  67  96 S5        30.10R FOG
MANISTEE       CLOUDY    66  63  88 CALM      30.08R VSB 1/4
OSCODA         CLOUDY    70  68  93 SE3       30.08R
PELLSTON       MOCLDY    64  63  96 CALM      30.07S
TRAVERSE CITY  FOG       67  66  97 S3        30.06R VSB 1/2
$$
MIZ007>008-015-051000-
EASTERN UPPER MICHIGAN

CITY           SKY/WX    TMP DP  RH WIND       PRES   REMARKS
KINROSS        CLEAR     66  64  94 NE5       30.09R
MACKINAC ISLAN CLEAR     66  64  94 SE9       30.06S
NEWBERRY       CLEAR     62  62  97 CALM      30.08S
S. S. MARIE    CLEAR     67  60  78 E3        30.09R
$$
MIZ004>006-011>014-085-051000-
CENTRAL UPPER MICHIGAN

CITY           SKY/WX    TMP DP  RH WIND       PRES   REMARKS
MANISTIQUE     CLOUDY    65  64  97 CALM      30.06S
ESCANABA       CLOUDY    66  64  94 NE3       30.04F
MENOMINEE      CLOUDY    64  61  88 CALM      30.06R
SAWYER-GWINN   CLEAR     65  64  94 CALM      30.06F
$$
MIZ001>003-009>011-084-051000-
WESTERN UPPER MICHIGAN

CITY           SKY/WX    TMP DP  RH WIND       PRES   REMARKS
IRON MOUNTAIN  FOG       63  62  97 NW3       30.07R VSB<1/4
HOUGHTON       CLEAR     60  59  96 SE6       30.04S FOG
COPPER HARBOR    N/A     65  63  93 W5        30.04S
IRONWOOD       CLEAR     70  64  83 SE5       29.99S
$$

ABBREVIATIONS USED IN REMARKS
   TC - TEMPERATURE IN CELSIUS
  WCI - WIND CHILL INDEX
   HX - HEAT INDEX
  VSB - VISIBILITY



USA.gov is the U.S. government's official web portal to all federal, state and local government web resources and services.